SIA736 WSSS-VTSP

Flight info

Callsign SIA736
Flight time 1h 22m
Altitude 36000
Route AROSO3A AROSO Y513 KALIL Y501 RINBA Y502 DUBAX R325 OSVIP URGAD1D
Aircraft B38M/M-SDE1E2E3FGHIJ4J7M3P2RWYZ/EB1D1

Departure

Time 2026-05-08 10:06
Airport Singapore Changi Airport (WSSS)

Arrival

Time 2026-05-08 11:29
Airport Phuket International Airport (VTSP)
Time Latitude Longitude Altitude Speed Heading
2026-05-08 09:42 1.35088 103.99049 33 ft 0 kts 84°
2026-05-08 09:54 1.35088 103.99045 33 ft 2 kts 84°
2026-05-08 09:54 1.35086 103.99024 33 ft 4 kts 84°
2026-05-08 09:55 1.35083 103.98999 33 ft 4 kts 83°
2026-05-08 09:55 1.35084 103.98975 33 ft 4 kts 116°
2026-05-08 09:55 1.35102 103.98958 33 ft 4 kts 146°
2026-05-08 09:55 1.35120 103.98950 33 ft 0 kts 166°
2026-05-08 09:58 1.35115 103.98951 33 ft 4 kts 167°
2026-05-08 09:58 1.35048 103.98960 33 ft 14 kts 174°
2026-05-08 09:59 1.34945 103.98974 33 ft 16 kts 167°
2026-05-08 09:59 1.34859 103.99049 33 ft 18 kts 115°
2026-05-08 09:59 1.34813 103.99112 33 ft 11 kts 169°
2026-05-08 09:59 1.34741 103.99086 33 ft 12 kts 203°
2026-05-08 10:00 1.34658 103.99052 33 ft 14 kts 202°
2026-05-08 10:00 1.34561 103.99011 33 ft 17 kts 202°
2026-05-08 10:00 1.34448 103.98963 33 ft 19 kts 203°
2026-05-08 10:00 1.34336 103.98916 33 ft 17 kts 201°
2026-05-08 10:01 1.34220 103.98870 33 ft 19 kts 201°
2026-05-08 10:01 1.34114 103.98824 33 ft 11 kts 205°
2026-05-08 10:01 1.34044 103.98792 33 ft 13 kts 205°
2026-05-08 10:01 1.33958 103.98753 33 ft 15 kts 204°
2026-05-08 10:02 1.33857 103.98714 33 ft 17 kts 206°
2026-05-08 10:02 1.33747 103.98668 33 ft 18 kts 204°
2026-05-08 10:02 1.33627 103.98618 33 ft 20 kts 202°
2026-05-08 10:02 1.33493 103.98561 33 ft 22 kts 202°
2026-05-08 10:03 1.33345 103.98499 33 ft 24 kts 203°
2026-05-08 10:03 1.33183 103.98431 33 ft 27 kts 202°
2026-05-08 10:03 1.33023 103.98364 33 ft 17 kts 203°
2026-05-08 10:03 1.32947 103.98372 33 ft 11 kts 137°
2026-05-08 10:04 1.32940 103.98382 33 ft 0 kts 115°
2026-05-08 10:04 1.32937 103.98389 33 ft 2 kts 114°
2026-05-08 10:05 1.32922 103.98423 33 ft 9 kts 113°
2026-05-08 10:05 1.32901 103.98489 33 ft 10 kts 78°
2026-05-08 10:05 1.32935 103.98522 33 ft 1 kts 22°
2026-05-08 10:05 1.33079 103.98583 33 ft 65 kts 23°
2026-05-08 10:06 1.33780 103.98879 33 ft 150 kts 23°
2026-05-08 10:06 1.34869 103.99363 540 ft 182 kts 25°
2026-05-08 10:06 1.36024 103.99851 1443 ft 182 kts 22°
2026-05-08 10:06 1.37203 104.00340 2025 ft 196 kts 22°
2026-05-08 10:07 1.38530 104.00894 2457 ft 219 kts 22°
2026-05-08 10:07 1.40019 104.01518 2885 ft 246 kts 22°
2026-05-08 10:07 1.41619 104.02190 3582 ft 260 kts 22°
2026-05-08 10:07 1.43340 104.02913 4271 ft 274 kts 22°
2026-05-08 10:08 1.45115 104.03660 5083 ft 279 kts 22°
2026-05-08 10:08 1.46915 104.04417 5972 ft 282 kts 22°
2026-05-08 10:08 1.48816 104.04889 6778 ft 284 kts 359°
2026-05-08 10:08 1.50741 104.04501 7580 ft 285 kts 335°
2026-05-08 10:09 1.52518 104.03593 8335 ft 290 kts 332°
2026-05-08 10:09 1.54302 104.02659 9112 ft 293 kts 331°
2026-05-08 10:09 1.56114 104.01699 9879 ft 298 kts 332°
2026-05-08 10:09 1.57962 104.00711 10470 ft 309 kts 332°
2026-05-08 10:10 1.59918 103.99660 10828 ft 328 kts 332°
2026-05-08 10:10 1.61765 103.98666 11277 ft 339 kts 332°
2026-05-08 10:10 1.63855 103.97538 12009 ft 342 kts 332°
2026-05-08 10:10 1.65964 103.96400 12792 ft 346 kts 332°
2026-05-08 10:11 1.68092 103.95253 13566 ft 350 kts 333°
2026-05-08 10:11 1.70247 103.94089 14262 ft 354 kts 333°
2026-05-08 10:11 1.72360 103.92949 14960 ft 358 kts 333°
2026-05-08 10:11 1.74345 103.91860 15573 ft 362 kts 329°
2026-05-08 10:12 1.76289 103.90145 16298 ft 367 kts 310°
2026-05-08 10:12 1.77892 103.88142 16937 ft 373 kts 309°
2026-05-08 10:12 1.79514 103.86096 17590 ft 377 kts 309°
2026-05-08 10:12 1.81131 103.84031 18218 ft 381 kts 309°
2026-05-08 10:13 1.82766 103.81928 18766 ft 384 kts 309°
2026-05-08 10:13 1.84408 103.79807 19321 ft 387 kts 309°
2026-05-08 10:13 1.86062 103.77669 19842 ft 391 kts 309°
2026-05-08 10:13 1.87732 103.75507 20346 ft 395 kts 309°
2026-05-08 10:14 1.89365 103.73391 20863 ft 398 kts 309°
2026-05-08 10:14 1.91057 103.71192 21375 ft 401 kts 309°
2026-05-08 10:14 1.92765 103.68974 21880 ft 404 kts 309°
2026-05-08 10:14 1.94487 103.66736 22384 ft 408 kts 309°
2026-05-08 10:15 1.96218 103.64487 22874 ft 411 kts 309°
2026-05-08 10:15 1.97966 103.62214 23367 ft 414 kts 309°
2026-05-08 10:15 1.99728 103.59925 23770 ft 417 kts 309°
2026-05-08 10:15 2.01502 103.57619 24177 ft 420 kts 309°
2026-05-08 10:16 2.03264 103.55329 24569 ft 422 kts 309°
2026-05-08 10:16 2.05060 103.52995 24959 ft 425 kts 309°
2026-05-08 10:16 2.06865 103.50648 25361 ft 428 kts 309°
2026-05-08 10:16 2.08684 103.48285 25755 ft 430 kts 309°
2026-05-08 10:17 2.10516 103.45903 26151 ft 433 kts 309°
2026-05-08 10:17 2.11730 103.44324 26409 ft 434 kts 309°
2026-05-08 10:17 2.13582 103.41879 26792 ft 438 kts 306°
2026-05-08 10:17 2.15224 103.38183 27322 ft 443 kts 287°
2026-05-08 10:18 2.15819 103.36226 27543 ft 446 kts 288°
2026-05-08 10:18 2.16729 103.33253 27874 ft 449 kts 288°
2026-05-08 10:18 2.17627 103.30254 28266 ft 452 kts 288°
2026-05-08 10:18 2.18530 103.27192 28615 ft 455 kts 288°
2026-05-08 10:19 2.19422 103.24151 28964 ft 457 kts 288°
2026-05-08 10:19 2.20305 103.21137 29310 ft 460 kts 288°
2026-05-08 10:19 2.21206 103.18061 29647 ft 462 kts 288°
2026-05-08 10:20 2.23022 103.11859 30247 ft 467 kts 288°
2026-05-08 10:20 2.23935 103.08739 30526 ft 469 kts 288°
2026-05-08 10:20 2.24856 103.05594 30787 ft 472 kts 288°
2026-05-08 10:20 2.25779 103.02439 31088 ft 473 kts 287°
2026-05-08 10:21 2.26686 102.99340 31370 ft 475 kts 287°
2026-05-08 10:21 2.27611 102.96179 31660 ft 477 kts 287°
2026-05-08 10:21 2.28543 102.92994 31941 ft 478 kts 287°
2026-05-08 10:21 2.29478 102.89801 32200 ft 480 kts 287°
2026-05-08 10:22 2.30418 102.86594 32472 ft 482 kts 287°
2026-05-08 10:22 2.31365 102.83371 32743 ft 483 kts 287°
2026-05-08 10:22 2.32313 102.80140 33010 ft 485 kts 287°
2026-05-08 10:22 2.33261 102.76895 33234 ft 487 kts 287°
2026-05-08 10:23 2.34198 102.73686 33487 ft 488 kts 287°
2026-05-08 10:23 2.35148 102.70437 33746 ft 490 kts 287°
2026-05-08 10:23 2.36102 102.67174 33991 ft 490 kts 287°
2026-05-08 10:23 2.37054 102.63916 34247 ft 490 kts 287°
2026-05-08 10:24 2.38009 102.60647 34541 ft 489 kts 287°
2026-05-08 10:24 2.38963 102.57383 34818 ft 489 kts 287°
2026-05-08 10:24 2.39902 102.54167 35145 ft 487 kts 287°
2026-05-08 10:24 2.40852 102.50917 35442 ft 485 kts 287°
2026-05-08 10:25 2.41793 102.47693 35744 ft 485 kts 287°
2026-05-08 10:25 2.42737 102.44461 36041 ft 484 kts 287°
2026-05-08 10:25 2.43680 102.41233 36340 ft 483 kts 287°
2026-05-08 10:25 2.44618 102.38023 36622 ft 482 kts 287°
2026-05-08 10:26 2.45797 102.34918 36894 ft 479 kts 299°
2026-05-08 10:26 2.47666 102.32209 37185 ft 473 kts 315°
2026-05-08 10:26 2.50102 102.30021 37442 ft 470 kts 322°
2026-05-08 10:26 2.52627 102.27951 37644 ft 471 kts 323°
2026-05-08 10:27 2.55152 102.25919 37835 ft 471 kts 323°
2026-05-08 10:27 2.60281 102.21863 37827 ft 468 kts 323°
2026-05-08 10:28 2.65380 102.17858 37827 ft 468 kts 323°
2026-05-08 10:28 2.70495 102.13843 37827 ft 468 kts 323°
2026-05-08 10:29 2.75588 102.09845 37821 ft 468 kts 323°
2026-05-08 10:29 2.80708 102.05826 37825 ft 468 kts 323°
2026-05-08 10:30 2.85824 102.01809 37826 ft 469 kts 323°
2026-05-08 10:30 2.90954 101.97780 37827 ft 470 kts 323°
2026-05-08 10:31 2.96036 101.93789 37830 ft 470 kts 323°
2026-05-08 10:31 3.01173 101.89753 37828 ft 470 kts 323°
2026-05-08 10:32 3.06351 101.85686 37841 ft 471 kts 323°
2026-05-08 10:32 3.11501 101.81640 37836 ft 471 kts 323°
2026-05-08 10:33 3.16606 101.77629 37838 ft 471 kts 323°
2026-05-08 10:33 3.21783 101.73560 37840 ft 471 kts 323°
2026-05-08 10:34 3.26898 101.69540 37838 ft 471 kts 323°
2026-05-08 10:34 3.32044 101.65515 37836 ft 470 kts 326°
2026-05-08 10:34 3.34883 101.63953 37843 ft 464 kts 339°
2026-05-08 10:35 3.37848 101.62635 37823 ft 467 kts 337°
2026-05-08 10:35 3.43737 101.59966 37849 ft 465 kts 338°
2026-05-08 10:36 3.49645 101.57333 37841 ft 465 kts 338°
2026-05-08 10:36 3.55531 101.54715 37843 ft 465 kts 338°
2026-05-08 10:37 3.61430 101.52091 37847 ft 465 kts 338°
2026-05-08 10:37 3.67322 101.49469 37845 ft 465 kts 338°
2026-05-08 10:38 3.73186 101.46860 37843 ft 465 kts 338°
2026-05-08 10:38 3.79049 101.44251 37846 ft 461 kts 338°
2026-05-08 10:39 3.84873 101.41660 37839 ft 460 kts 338°
2026-05-08 10:39 3.90717 101.39061 37843 ft 460 kts 338°
2026-05-08 10:40 3.96544 101.36469 37844 ft 460 kts 338°
2026-05-08 10:40 4.02362 101.33881 37844 ft 460 kts 338°
2026-05-08 10:41 4.08202 101.31282 37844 ft 460 kts 338°
2026-05-08 10:41 4.14044 101.28683 37831 ft 462 kts 338°
2026-05-08 10:42 4.19922 101.26067 37844 ft 464 kts 338°
2026-05-08 10:42 4.25763 101.23467 37840 ft 463 kts 338°
2026-05-08 10:43 4.31651 101.20845 37834 ft 463 kts 338°
2026-05-08 10:43 4.37533 101.18226 37821 ft 463 kts 338°
2026-05-08 10:44 4.43392 101.15617 37812 ft 463 kts 338°
2026-05-08 10:44 4.49261 101.13002 37794 ft 463 kts 338°
2026-05-08 10:45 4.55165 101.10371 37807 ft 465 kts 338°
2026-05-08 10:45 4.61113 101.07795 37800 ft 465 kts 338°
2026-05-08 10:46 4.67049 101.05235 37802 ft 465 kts 338°
2026-05-08 10:46 4.72972 101.02679 37817 ft 465 kts 338°
2026-05-08 10:47 4.78921 101.00111 37824 ft 465 kts 338°
2026-05-08 10:47 4.84863 100.97545 37831 ft 465 kts 338°
2026-05-08 10:48 4.90786 100.94987 37838 ft 464 kts 338°
2026-05-08 10:48 4.96677 100.92442 37837 ft 464 kts 338°
2026-05-08 10:49 5.02606 100.89881 37840 ft 464 kts 338°
2026-05-08 10:49 5.08527 100.87323 37839 ft 464 kts 338°
2026-05-08 10:50 5.14416 100.84778 37819 ft 464 kts 338°
2026-05-08 10:50 5.20309 100.82231 37833 ft 464 kts 338°
2026-05-08 10:51 5.26235 100.79669 37822 ft 464 kts 338°
2026-05-08 10:51 5.32177 100.77100 37827 ft 466 kts 338°
2026-05-08 10:52 5.38045 100.74396 37821 ft 467 kts 332°
2026-05-08 10:52 5.43696 100.71235 37787 ft 468 kts 332°
2026-05-08 10:53 5.49351 100.68042 37796 ft 467 kts 332°
2026-05-08 10:53 5.55006 100.64845 37781 ft 468 kts 332°
2026-05-08 10:54 5.60669 100.61643 37778 ft 468 kts 332°
2026-05-08 10:54 5.66336 100.58438 37799 ft 468 kts 332°
2026-05-08 10:55 5.72009 100.55229 37804 ft 469 kts 332°
2026-05-08 10:55 5.77674 100.52015 37804 ft 469 kts 331°
2026-05-08 10:56 5.83255 100.48656 37804 ft 469 kts 331°
2026-05-08 10:56 5.88843 100.45306 37810 ft 469 kts 331°
2026-05-08 10:57 5.94440 100.41951 37810 ft 469 kts 331°
2026-05-08 10:57 6.02800 100.36940 37806 ft 467 kts 330°
2026-05-08 10:58 6.08376 100.33597 37803 ft 466 kts 330°
2026-05-08 10:58 6.13950 100.30253 37815 ft 467 kts 330°
2026-05-08 10:59 6.19526 100.26909 37815 ft 467 kts 330°
2026-05-08 10:59 6.25080 100.23575 37814 ft 467 kts 330°
2026-05-08 11:00 6.30646 100.20235 37818 ft 467 kts 331°
2026-05-08 11:00 6.36215 100.16891 37813 ft 465 kts 331°
2026-05-08 11:01 6.41750 100.13551 37810 ft 465 kts 328°
2026-05-08 11:01 6.44211 100.11455 37804 ft 466 kts 313°
2026-05-08 11:01 6.46412 100.09056 37808 ft 468 kts 314°
2026-05-08 11:02 6.53035 100.01848 37815 ft 469 kts 314°
2026-05-08 11:03 6.56685 99.97822 37812 ft 468 kts 314°
2026-05-08 11:03 6.61065 99.92985 37814 ft 469 kts 314°
2026-05-08 11:04 6.65439 99.88153 37818 ft 469 kts 314°
2026-05-08 11:04 6.69796 99.83339 37508 ft 464 kts 314°
2026-05-08 11:04 6.71960 99.80948 36762 ft 466 kts 314°
2026-05-08 11:05 6.74146 99.78531 35821 ft 473 kts 313°
2026-05-08 11:05 6.76365 99.76079 35012 ft 476 kts 313°
2026-05-08 11:05 6.78595 99.73613 34297 ft 477 kts 313°
2026-05-08 11:05 6.80816 99.71157 33487 ft 480 kts 313°
2026-05-08 11:06 6.83062 99.68673 32647 ft 482 kts 313°
2026-05-08 11:06 6.85310 99.66187 32020 ft 479 kts 313°
2026-05-08 11:06 6.87534 99.63726 31507 ft 474 kts 313°
2026-05-08 11:06 6.89747 99.61278 30963 ft 470 kts 313°
2026-05-08 11:07 6.91929 99.58863 30365 ft 469 kts 313°
2026-05-08 11:07 6.94106 99.56453 29697 ft 468 kts 313°
2026-05-08 11:07 6.96268 99.54060 29004 ft 467 kts 313°
2026-05-08 11:07 6.98443 99.51653 28396 ft 464 kts 313°
2026-05-08 11:08 7.00607 99.49295 27780 ft 461 kts 314°
2026-05-08 11:08 7.02804 99.46965 27117 ft 460 kts 314°
2026-05-08 11:08 7.04986 99.44644 26612 ft 456 kts 314°
2026-05-08 11:08 7.07149 99.42339 26046 ft 453 kts 314°
2026-05-08 11:09 7.09290 99.40055 25485 ft 451 kts 314°
2026-05-08 11:09 7.11447 99.37754 24918 ft 450 kts 314°
2026-05-08 11:09 7.13582 99.35476 24357 ft 448 kts 314°
2026-05-08 11:09 7.15718 99.33197 23801 ft 447 kts 314°
2026-05-08 11:10 7.17843 99.30929 23221 ft 446 kts 314°
2026-05-08 11:10 7.19960 99.28670 22596 ft 444 kts 314°
2026-05-08 11:10 7.22071 99.26416 22063 ft 440 kts 314°
2026-05-08 11:10 7.24152 99.24194 21542 ft 436 kts 314°
2026-05-08 11:11 7.26223 99.21982 21039 ft 432 kts 314°
2026-05-08 11:11 7.28246 99.19822 20545 ft 429 kts 314°
2026-05-08 11:11 7.30272 99.17658 20052 ft 426 kts 314°
2026-05-08 11:11 7.32294 99.15498 19567 ft 422 kts 314°
2026-05-08 11:12 7.34298 99.13357 19092 ft 420 kts 314°
2026-05-08 11:12 7.36288 99.11230 18624 ft 417 kts 314°
2026-05-08 11:12 7.38270 99.09112 18159 ft 414 kts 314°
2026-05-08 11:12 7.40243 99.07002 17639 ft 411 kts 314°
2026-05-08 11:13 7.42101 99.05016 17202 ft 396 kts 314°
2026-05-08 11:13 7.44050 99.02933 16726 ft 394 kts 314°
2026-05-08 11:13 7.45922 99.00931 16284 ft 391 kts 314°
2026-05-08 11:13 7.47776 98.98949 15846 ft 389 kts 314°
2026-05-08 11:14 7.49621 98.96975 15406 ft 383 kts 314°
2026-05-08 11:14 7.51417 98.95054 15003 ft 372 kts 314°
2026-05-08 11:14 7.53176 98.93171 14578 ft 364 kts 314°
2026-05-08 11:14 7.54895 98.91333 14165 ft 357 kts 314°
2026-05-08 11:15 7.56585 98.89525 13767 ft 351 kts 314°
2026-05-08 11:15 7.58240 98.87753 13338 ft 345 kts 314°
2026-05-08 11:15 7.59874 98.86004 12922 ft 342 kts 314°
2026-05-08 11:15 7.61524 98.84238 12525 ft 349 kts 314°
2026-05-08 11:16 7.63185 98.82459 12122 ft 351 kts 314°
2026-05-08 11:16 7.64840 98.80687 11748 ft 350 kts 314°
2026-05-08 11:16 7.66496 98.78914 11432 ft 345 kts 314°
2026-05-08 11:16 7.68125 98.77169 11110 ft 341 kts 314°
2026-05-08 11:17 7.69691 98.75492 10790 ft 338 kts 314°
2026-05-08 11:17 7.71263 98.73807 10605 ft 323 kts 314°
2026-05-08 11:17 7.72752 98.72200 10453 ft 306 kts 314°
2026-05-08 11:17 7.74167 98.70673 10328 ft 295 kts 314°
2026-05-08 11:18 7.75536 98.69197 10183 ft 288 kts 314°
2026-05-08 11:18 7.76883 98.67761 10024 ft 281 kts 317°
2026-05-08 11:18 7.78414 98.66615 9787 ft 282 kts 329°
2026-05-08 11:18 7.80067 98.65544 9497 ft 287 kts 328°
2026-05-08 11:19 7.81722 98.64460 9206 ft 289 kts 328°
2026-05-08 11:19 7.83402 98.63357 8925 ft 289 kts 328°
2026-05-08 11:19 7.85082 98.62250 8639 ft 289 kts 328°
2026-05-08 11:19 7.86748 98.61152 8354 ft 288 kts 328°
2026-05-08 11:20 7.88416 98.60051 8071 ft 286 kts 328°
2026-05-08 11:20 7.90078 98.58954 7802 ft 285 kts 328°
2026-05-08 11:20 7.91787 98.57967 7480 ft 280 kts 343°
2026-05-08 11:20 7.93555 98.57667 7174 ft 270 kts 358°
2026-05-08 11:21 7.95398 98.57490 6902 ft 262 kts 356°
2026-05-08 11:21 7.97222 98.57310 6678 ft 264 kts 356°
2026-05-08 11:21 7.99050 98.57133 6443 ft 264 kts 356°
2026-05-08 11:21 8.00845 98.56962 6184 ft 262 kts 356°
2026-05-08 11:22 8.02538 98.56802 5920 ft 261 kts 356°
2026-05-08 11:22 8.04340 98.56631 5635 ft 259 kts 356°
2026-05-08 11:22 8.06120 98.56463 5360 ft 258 kts 356°
2026-05-08 11:22 8.07855 98.56300 5112 ft 247 kts 356°
2026-05-08 11:23 8.09513 98.56143 4907 ft 232 kts 357°
2026-05-08 11:23 8.11064 98.55964 4676 ft 216 kts 349°
2026-05-08 11:23 8.12313 98.55236 4396 ft 202 kts 313°
2026-05-08 11:23 8.12890 98.54181 4168 ft 185 kts 284°
2026-05-08 11:24 8.12938 98.52935 3933 ft 175 kts 263°
2026-05-08 11:24 8.12832 98.51742 3806 ft 167 kts 264°
2026-05-08 11:24 8.12720 98.50595 3694 ft 162 kts 266°
2026-05-08 11:24 8.12669 98.49474 3495 ft 159 kts 266°
2026-05-08 11:25 8.12592 98.48372 3245 ft 159 kts 265°
2026-05-08 11:25 8.12510 98.47262 3040 ft 158 kts 265°
2026-05-08 11:25 8.12428 98.46161 2811 ft 157 kts 265°
2026-05-08 11:25 8.12347 98.45082 2591 ft 153 kts 265°
2026-05-08 11:26 8.12268 98.44022 2358 ft 151 kts 265°
2026-05-08 11:26 8.12191 98.42998 2130 ft 148 kts 265°
2026-05-08 11:26 8.12115 98.41977 1992 ft 146 kts 266°
2026-05-08 11:26 8.12040 98.40958 1954 ft 145 kts 266°
2026-05-08 11:27 8.11983 98.39938 1723 ft 145 kts 269°
2026-05-08 11:27 8.11944 98.38930 1448 ft 142 kts 266°
2026-05-08 11:27 8.11883 98.37936 1168 ft 141 kts 269°
2026-05-08 11:27 8.11816 98.36957 909 ft 140 kts 264°
2026-05-08 11:28 8.11729 98.35972 713 ft 141 kts 264°
2026-05-08 11:28 8.11636 98.34986 490 ft 142 kts 266°
2026-05-08 11:28 8.11542 98.33993 274 ft 143 kts 264°
2026-05-08 11:28 8.11439 98.33349 65 ft 56 kts 168°
2026-05-08 11:29 8.11372 98.33299 60 ft 0 kts 180°
2026-05-08 11:33 8.11371 98.33298 60 ft 2 kts 192°
2026-05-08 11:34 8.11364 98.33290 54 ft 0 kts 258°
2026-05-08 11:34 8.11361 98.33261 62 ft 9 kts 263°
2026-05-08 11:34 8.11347 98.33194 58 ft 10 kts 256°
2026-05-08 11:34 8.11320 98.33085 57 ft 21 kts 255°
2026-05-08 11:35 8.11303 98.32939 56 ft 21 kts 267°
2026-05-08 11:35 8.11288 98.32759 52 ft 29 kts 263°
2026-05-08 11:35 8.11269 98.32547 50 ft 32 kts 265°
2026-05-08 11:35 8.11250 98.32314 45 ft 36 kts 265°
2026-05-08 11:36 8.11221 98.32051 39 ft 41 kts 264°
2026-05-08 11:36 8.11191 98.31736 32 ft 48 kts 265°
2026-05-08 11:36 8.11157 98.31388 24 ft 51 kts 265°
2026-05-08 11:36 8.11123 98.31019 14 ft 53 kts 263°
2026-05-08 11:37 8.11065 98.30676 6 ft 45 kts 265°
2026-05-08 11:37 8.11052 98.30545 3 ft 0 kts 264°
2026-05-08 11:37 8.11052 98.30539 3 ft 3 kts 262°
2026-05-08 11:37 8.11039 98.30497 3 ft 8 kts 227°
2026-05-08 11:38 8.10975 98.30472 2 ft 11 kts 195°
2026-05-08 11:38 8.10885 98.30448 1 ft 15 kts 195°
2026-05-08 11:38 8.10775 98.30420 1 ft 16 kts 195°
2026-05-08 11:38 8.10728 98.30426 1 ft 1 kts 114°
2026-05-08 11:39 8.10724 98.30455 1 ft 10 kts 100°
2026-05-08 11:39 8.10714 98.30502 2 ft 0 kts 103°